Tracking 18852 objects as of 24-Nov-2017
HD Live streaming from Space Station
objects crossing your sky now

INTELSAT 4A-F4

Track INTELSAT 4A-F4 now!
INTELSAT 4A-F4 is classified as:


NORAD ID: 10024
Int'l Code: 1977-041A
Perigee: 35,976.3 km
Apogee: 36,081.9 km
Inclination: 14.3 °
Period: 1,448.1 minutes
Semi major axis: 42400 km
RCS: 2.3464 m2 (large)
Launch date: May 26, 1977
Source: International Telecommunications Satellite Organization (ITSO)
Launch site: AIR FORCE EASTERN TEST RANGE (AFETR)
aabbcc
Your satellite tracking list
Your tracking list is empty




NASA's NSSDC Master Catalog

Two Line Element Set (TLE):
1 10024U 77041A   17326.60162237 +.00000022 +00000-0 +00000-0 0  9996
2 10024 014.2624 339.3178 0012461 207.1358 168.1008 00.99438066015872
Source of the keplerian elements: AFSPC